This is the latest recevied weather packets stored in our database for station/object N0QV. If no packets are shown the sender has not sent any weather packets the latest 10 day(s).
| Time | Temp. | Humidity | Pressure | Rain* | Wind** | Luminosity | Snow |
|---|---|---|---|---|---|---|---|
| 1787887260 | 16.67° C | 88% | 1018.9 hPa | 0 mm | - | 0 W/m² | - |
| 1787886954 | 16.67° C | 86% | 1019.1 hPa | 0 mm | - | 0 W/m² | - |
| 1787886654 | 16.67° C | 86% | 1019.1 hPa | 0 mm | - | 0 W/m² | - |
| 1787886349 | 16.67° C | 86% | 1019.2 hPa | 0 mm | - | 0 W/m² | - |
| 1787886045 | 17.22° C | 88% | 1019 hPa | 0 mm | - | 0 W/m² | - |
| 1787885743 | 17.22° C | 89% | 1019.1 hPa | 0 mm | - | 0 W/m² | - |
| 1787885442 | 16.67° C | 88% | 1019.4 hPa | 0 mm | - | 0 W/m² | - |
| 1787885137 | 17.22° C | 88% | 1019.1 hPa | 0 mm | - | 0 W/m² | - |
| 1787884832 | 17.22° C | 87% | 1019 hPa | 0 mm | - | 0 W/m² | - |
| 1787884531 | 17.22° C | 86% | 1018.9 hPa | 0 mm | - | 0 W/m² | - |
| 1787884228 | 17.78° C | 85% | 1019 hPa | 0 mm | - | 0 W/m² | - |
| 1787883924 | 17.78° C | 85% | 1018.8 hPa | 0 mm | - | 0 W/m² | - |
| 1787883624 | 17.78° C | 85% | 1018.7 hPa | 0 mm | - | 0 W/m² | - |
| 1787883320 | 17.78° C | 84% | 1018.7 hPa | 0 mm | - | 0 W/m² | - |
| 1787883018 | 17.78° C | 83% | 1018.7 hPa | 0 mm | - | 0 W/m² | - |
| 1787882714 | 18.33° C | 83% | 1018.7 hPa | 0 mm | - | 0 W/m² | - |
| 1787882411 | 18.33° C | 84% | 1018.6 hPa | 0 mm | - | 0 W/m² | - |
| 1787882106 | 18.33° C | 82% | 1018.6 hPa | 0 mm | - | 0 W/m² | - |
| 1787881801 | 18.89° C | 80% | 1018.4 hPa | 0 mm | - | 0 W/m² | - |
| 1787881501 | 19.44° C | 77% | 1018.5 hPa | 0 mm | - | 0 W/m² | - |
| 1787881197 | 19.44° C | 77% | 1018.6 hPa | 0 mm | - | 0 W/m² | - |
| 1787880893 | 20° C | 74% | 1018.1 hPa | 0 mm | - | 0 W/m² | - |
| 1787880592 | 20° C | 73% | 1018.2 hPa | 0 mm | - | 0 W/m² | - |
| 1787880290 | 20.56° C | 71% | 1018.5 hPa | 0 mm | - | 0 W/m² | - |
| 1787879985 | 20.56° C | 70% | 1018.3 hPa | 0 mm | - | 0 W/m² | - |
* Rain latest hour (hover to see other rain measurements)
** Current wind speed in m/s (hover to see current wind gust speed)